This is the latest recevied weather packets stored in our database for station/object K4DNM. If no packets are shown the sender has not sent any weather packets the latest 10 day(s).
| Time | Temp. | Humidity | Pressure | Rain* | Wind** | Luminosity | Snow |
|---|---|---|---|---|---|---|---|
| 1777570331 | 20.56° C | 65% | 1008.5 hPa | 0 mm | - | 949 W/m² | - |
| 1777570035 | 20° C | 67% | 1008.6 hPa | 0 mm | - | 757 W/m² | - |
| 1777569729 | 20° C | 69% | 1008.7 hPa | 0 mm | - | 307 W/m² | - |
| 1777569446 | 20° C | 69% | 1008.8 hPa | 0 mm | - | 245 W/m² | - |
| 1777569128 | 20° C | 69% | 1008.8 hPa | 0 mm | - | 389 W/m² | - |
| 1777568830 | 19.44° C | 72% | 1008.8 hPa | 0 mm | - | 368 W/m² | - |
| 1777568532 | 19.44° C | 73% | 1008.8 hPa | 0 mm | - | 381 W/m² | - |
| 1777568232 | 18.89° C | 73% | 1008.9 hPa | 0 mm | - | 405 W/m² | - |
| 1777567931 | 18.89° C | 76% | 1009 hPa | 0 mm | - | 375 W/m² | - |
| 1777567629 | 18.33° C | 75% | 1009 hPa | 0 mm | - | 286 W/m² | - |
| 1777567330 | 18.33° C | 75% | 1009.1 hPa | 0 mm | - | 303 W/m² | - |
| 1777567030 | 17.78° C | 80% | 1009.2 hPa | 0 mm | - | 208 W/m² | - |
| 1777566727 | 17.78° C | 82% | 1009.3 hPa | 0 mm | - | 242 W/m² | - |
| 1777566430 | 17.22° C | 81% | 1009.4 hPa | 0 mm | - | 181 W/m² | - |
| 1777566127 | 17.22° C | 83% | 1009.5 hPa | 0 mm | - | 145 W/m² | - |
| 1777565829 | 17.22° C | 84% | 1009.6 hPa | 0 mm | - | 138 W/m² | - |
| 1777565527 | 17.22° C | 83% | 1009.5 hPa | 0 mm | - | 115 W/m² | - |
| 1777565229 | 17.22° C | 84% | 1009.5 hPa | 0 mm | - | 101 W/m² | - |
| 1777564930 | 17.22° C | 84% | 1009.5 hPa | 0 mm | - | 78 W/m² | - |
| 1777564630 | 17.22° C | 83% | 1009.6 hPa | 0 mm | - | 72 W/m² | - |
| 1777564330 | 17.22° C | 83% | 1009.6 hPa | 0 mm | - | 75 W/m² | - |
| 1777564013 | 17.78° C | 83% | 1009.5 hPa | 0 mm | - | 90 W/m² | - |
| 1777563771 | 17.78° C | 81% | 1009.4 hPa | 0 mm | - | 74 W/m² | - |
| 1777563412 | 17.78° C | 81% | 1009.4 hPa | 0 mm | - | 59 W/m² | - |
| 1777563110 | 17.78° C | 80% | 1009.4 hPa | 0 mm | - | 68 W/m² | - |
* Rain latest hour (hover to see other rain measurements)
** Current wind speed in m/s (hover to see current wind gust speed)